Wind_Speed
12 13 13 14 13 13 14 14 13 13 13 14 14 15 15 15 16 17 17 18 19 19 20 20 21 21 21 22 22 22 23 24 24 24 24 24 24 23
13 14 13 14 14 14 15 15 15 15 15 15 15 15 16 16 17 17 18 19 19 19 19 20 21 21 21 21 22 22 23 24 24 25 25 25 25 25
14 15 15 15 15 15 15 16 16 16 15 15 16 16 17 18 18 18 18 19 20 20 21 22 23 23 23 23 24 23 24 24 25 25 25 25 25 25
16 16 16 17 17 17 17 17 17 17 17 17 17 18 18 18 18 19 20 21 22 22 22 23 23 24 24 24 24 24 24 24 24 25 25 24 24 24
17 17 17 18 18 18 17 18 18 18 18 18 18 18 19 19 19 20 21 22 23 23 23 24 24 25 24 24 24 24 23 23 24 24 25 24 24 25
18 19 18 18 18 18 18 19 19 19 19 19 19 19 20 19 20 21 22 22 23 23 24 24 24 24 24 25 24 24 24 24 24 24 24 24 24 25
20 20 19 19 19 19 19 20 20 19 20 20 20 20 20 20 21 21 22 23 23 23 23 23 23 24 24 24 24 24 24 25 24 23 24 24 24 25
20 20 20 19 19 20 20 21 21 21 21 21 21 21 21 22 22 23 23 22 22 23 23 22 22 23 23 23 24 24 24 24 24 24 24 24 25 25
21 20 20 20 20 21 22 22 22 22 22 22 22 22 22 23 23 24 24 24 24 23 23 23 22 23 23 23 23 24 24 24 25 25 25 25 26 26
21 21 21 21 22 22 22 23 23 23 23 23 23 23 23 23 23 24 24 23 23 23 23 23 24 23 24 24 24 24 24 25 25 25 26 26 27 27
22 22 22 23 23 23 23 24 24 24 25 25 24 24 24 24 24 24 24 24 23 23 24 24 24 24 24 24 25 25 25 25 26 26 26 27 27 28
23 23 23 23 23 24 24 25 25 25 25 24 24 25 25 24 24 25 24 24 24 24 24 24 25 25 25 26 26 26 25 26 26 27 27 28 29 29
24 24 24 24 24 24 25 25 25 25 25 25 25 25 25 25 24 24 24 24 24 24 25 25 25 25 26 26 26 26 27 27 28 28 29 29 30 30
25 25 26 26 26 26 26 26 26 25 25 26 26 26 26 25 25 24 24 24 25 25 25 26 26 26 26 26 26 26 27 28 28 29 29 30 30 31
27 28 28 28 28 27 27 27 27 27 26 26 27 27 26 26 26 25 25 25 25 26 26 27 27 27 26 26 26 27 28 29 29 30 30 31 31 31
28 29 29 29 29 29 28 28 29 28 28 27 27 27 26 26 27 27 26 26 26 27 27 27 28 27 27 28 28 29 29 30 30 31 31 31 31 31
29 29 29 28 29 29 29 29 29 28 28 28 28 28 28 28 28 27 27 27 27 27 27 27 27 28 28 29 29 30 30 31 32 32 31 31 31 31
29 29 28 28 29 29 29 29 28 28 28 27 27 28 28 28 28 28 27 27 26 26 26 26 27 28 28 29 29 31 31 31 31 31 31 31 32 32
29 29 29 29 29 29 29 28 28 28 28 28 28 28 28 28 28 27 27 27 26 26 26 27 28 28 29 29 29 31 31 31 31 31 31 32 32 32
29 29 29 29 29 29 29 28 28 28 28 28 29 29 28 28 27 27 27 27 27 27 27 27 28 28 29 29 29 30 32 31 31 31 32 33 33 33
28 29 29 29 29 29 29 28 28 29 28 28 29 29 29 28 27 27 27 26 27 26 27 28 28 29 30 29 30 30 30 31 31 31 32 32 32 32
28 29 29 29 29 28 29 29 29 29 29 29 28 28 28 28 27 27 27 27 27 28 29 29 29 29 30 30 30 30 30 30 31 31 32 32 32 32
29 29 29 29 28 29 29 29 29 28 28 28 28 28 28 28 28 28 28 28 28 29 29 29 30 31 31 31 30 30 30 30 31 32 32 32 32 32
Wind_Direction
321 318 316 314 310 311 313 311 309 306 303 301 295 288 284 282 280 279 278 280 277 278 278 278 279 279 278 279 277 275 272 272 272 270 270 270 270 270
321 321 319 320 319 313 310 309 307 307 307 302 297 295 289 288 283 280 279 280 281 279 281 281 279 278 279 281 281 278 276 275 274 271 270 270 270 271
323 321 319 317 316 313 311 309 308 308 306 302 297 296 292 288 283 283 284 284 286 283 283 283 281 280 281 281 281 279 277 276 274 272 272 273 274 272
319 317 315 314 314 311 309 307 305 305 304 302 299 296 294 288 287 286 286 285 286 286 285 284 282 282 281 281 281 280 278 276 276 275 273 274 274 274
317 315 314 313 312 309 307 305 304 303 302 301 300 297 295 288 287 286 286 285 285 286 286 288 286 285 285 285 283 284 282 281 279 277 275 273 274 274
315 315 312 311 310 308 306 305 304 303 303 301 299 297 295 292 290 288 287 286 287 287 288 289 289 286 286 286 283 282 281 281 281 281 280 278 277 276
313 312 311 310 310 308 306 305 305 304 303 302 301 299 296 293 291 291 291 290 289 287 287 288 289 287 285 284 281 282 282 282 282 281 282 280 280 279
310 310 310 309 309 310 309 308 305 303 301 301 300 298 295 293 292 291 292 293 292 290 291 290 289 288 288 286 283 282 283 284 282 282 282 282 282 282
308 307 308 307 305 306 306 306 306 303 301 300 300 299 297 296 295 294 294 293 293 293 292 292 290 290 289 290 289 286 285 286 285 283 282 282 282 283
305 305 304 304 304 304 304 304 304 302 301 301 300 299 299 299 297 296 295 294 293 292 292 291 290 290 290 290 289 289 288 287 286 284 283 283 283 284
302 303 302 302 302 303 303 303 303 301 301 302 302 300 299 299 297 296 295 294 293 291 291 290 288 289 290 291 289 288 288 289 288 287 286 285 284 284
302 300 300 301 300 301 303 304 303 302 301 302 301 300 299 299 298 297 295 293 293 293 292 290 288 288 289 290 290 290 290 291 291 289 287 286 286 286
299 298 299 299 300 301 302 303 303 302 301 300 300 300 300 299 298 296 295 293 294 294 292 291 290 289 290 291 291 291 291 291 290 290 288 287 287 286
297 297 296 297 298 299 300 300 300 301 301 301 301 300 300 299 298 297 294 293 293 293 293 293 293 291 290 290 291 290 290 290 291 291 289 289 289 288
296 296 297 297 296 297 298 298 299 299 299 299 300 300 299 297 296 296 295 293 292 291 291 293 292 290 290 290 291 291 290 290 291 291 291 290 290 290
295 295 296 296 296 297 297 297 297 297 297 299 302 301 298 297 296 295 294 293 292 291 291 292 293 293 293 293 294 294 294 292 291 291 291 290 290 290
295 296 296 295 296 296 298 298 297 297 298 298 298 300 300 297 296 295 294 295 294 292 291 292 292 293 293 295 295 296 297 296 294 294 293 292 292 291
295 296 295 294 295 296 297 299 300 300 299 299 299 300 300 299 298 296 296 296 296 295 293 293 293 293 294 296 297 297 297 297 296 295 294 294 293 293
295 295 295 295 296 296 298 300 301 300 300 300 299 300 300 299 299 298 298 297 296 296 295 295 295 295 295 296 297 298 299 298 296 295 295 295 294 293
296 296 295 295 296 297 297 299 300 301 301 300 299 299 300 300 299 298 297 296 295 296 296 297 297 297 297 297 299 300 299 299 297 296 296 297 296 294
297 297 296 295 296 296 297 298 299 300 300 300 299 298 298 298 298 298 297 296 295 295 296 298 298 299 300 299 300 300 300 300 299 298 297 297 297 295
298 297 296 296 296 296 296 296 298 298 298 299 299 298 297 297 298 299 298 297 296 296 297 298 299 301 303 303 302 302 302 301 300 300 300 300 299 297
297 297 296 295 296 297 296 296 296 297 297 298 298 298 297 296 296 297 297 297 297 297 297 299 301 302 303 303 304 303 302 302 303 302 302 302 301 299
Height
5868 5866 5865 5862 5861 5859 5858 5856 5855 5853 5851 5850 5849 5848 5847 5846 5845 5845 5844 5844 5843 5842 5842 5841 5840 5839 5838 5837 5835 5834 5833 5833 5832 5832 5831 5831 5831 5831
5866 5864 5862 5860 5858 5856 5855 5853 5851 5850 5848 5847 5845 5844 5843 5842 5841 5840 5840 5839 5838 5837 5836 5835 5834 5833 5832 5830 5829 5828 5827 5826 5825 5825 5824 5824 5824 5824
5864 5862 5860 5858 5856 5854 5852 5850 5848 5847 5845 5843 5841 5840 5839 5838 5836 5836 5835 5834 5833 5832 5831 5830 5828 5827 5826 5824 5823 5821 5820 5819 5818 5817 5817 5816 5816 5816
5861 5859 5857 5855 5853 5851 5849 5847 5845 5843 5841 5840 5838 5836 5834 5833 5832 5831 5830 5829 5828 5826 5825 5824 5822 5821 5819 5818 5816 5815 5814 5812 5811 5810 5810 5810 5809 5809
5858 5856 5854 5852 5850 5848 5845 5843 5841 5839 5837 5836 5834 5832 5830 5829 5827 5826 5825 5823 5822 5820 5819 5817 5816 5814 5813 5811 5810 5809 5807 5806 5805 5804 5803 5803 5802 5802
5855 5853 5850 5848 5846 5844 5841 5839 5837 5835 5833 5831 5829 5828 5826 5824 5822 5820 5819 5817 5816 5814 5812 5811 5809 5807 5806 5804 5803 5802 5801 5799 5798 5797 5796 5796 5795 5795
5851 5849 5846 5844 5842 5840 5837 5835 5833 5831 5829 5827 5825 5823 5821 5819 5817 5815 5813 5811 5809 5808 5806 5804 5802 5801 5799 5798 5796 5795 5794 5792 5791 5790 5789 5789 5788 5788
5847 5844 5842 5840 5838 5835 5833 5831 5828 5826 5824 5822 5820 5817 5815 5813 5811 5809 5807 5805 5803 5802 5799 5798 5795 5794 5792 5791 5789 5788 5787 5786 5785 5784 5783 5782 5781 5780
5842 5840 5837 5835 5833 5831 5828 5826 5823 5821 5819 5817 5814 5812 5809 5807 5805 5802 5800 5798 5797 5795 5793 5791 5789 5787 5786 5784 5783 5782 5780 5779 5778 5776 5775 5774 5773 5772
5837 5835 5832 5830 5828 5825 5823 5821 5818 5816 5813 5811 5809 5806 5803 5800 5798 5796 5794 5792 5790 5788 5786 5785 5783 5781 5779 5777 5776 5774 5773 5771 5770 5769 5768 5767 5765 5764
5832 5829 5827 5824 5822 5820 5817 5815 5812 5810 5807 5805 5802 5799 5797 5794 5791 5789 5787 5785 5783 5781 5779 5777 5776 5774 5772 5770 5768 5767 5765 5764 5762 5761 5760 5758 5757 5756
5826 5823 5821 5819 5816 5814 5812 5809 5806 5804 5801 5798 5796 5793 5790 5788 5785 5783 5780 5778 5776 5775 5772 5770 5768 5766 5765 5763 5761 5759 5757 5756 5754 5753 5752 5750 5749 5747
5819 5817 5815 5812 5810 5808 5805 5803 5800 5797 5795 5792 5789 5787 5784 5781 5778 5776 5774 5772 5769 5767 5765 5763 5761 5759 5757 5756 5754 5751 5750 5748 5746 5745 5743 5741 5740 5738
5813 5811 5808 5806 5804 5802 5799 5797 5794 5791 5788 5786 5783 5780 5777 5774 5772 5769 5767 5764 5762 5760 5758 5755 5753 5751 5749 5748 5746 5744 5742 5740 5738 5736 5734 5732 5730 5728
5806 5804 5801 5799 5797 5795 5792 5790 5787 5784 5782 5779 5776 5773 5770 5767 5765 5762 5760 5757 5755 5752 5750 5748 5746 5744 5742 5740 5738 5736 5734 5732 5730 5728 5726 5723 5721 5719
5798 5796 5794 5792 5789 5787 5785 5782 5779 5777 5774 5772 5769 5766 5763 5760 5757 5755 5752 5750 5747 5745 5742 5740 5738 5736 5734 5732 5730 5728 5725 5723 5721 5719 5717 5714 5712 5709
5790 5788 5786 5784 5782 5779 5777 5774 5771 5769 5766 5764 5761 5759 5756 5753 5750 5747 5745 5742 5740 5737 5735 5733 5730 5728 5726 5724 5721 5719 5716 5714 5711 5709 5707 5704 5702 5700
5783 5781 5779 5776 5774 5772 5769 5767 5764 5761 5759 5757 5754 5751 5749 5746 5743 5740 5737 5735 5732 5729 5727 5725 5723 5720 5718 5716 5713 5710 5708 5705 5703 5700 5697 5695 5693 5690
5776 5773 5771 5769 5766 5764 5761 5759 5757 5754 5751 5749 5746 5744 5741 5738 5735 5732 5730 5727 5725 5722 5720 5718 5715 5713 5711 5708 5706 5702 5699 5697 5694 5691 5688 5685 5683 5680
5768 5765 5763 5760 5758 5756 5753 5751 5749 5746 5744 5741 5738 5736 5733 5731 5728 5725 5722 5720 5717 5715 5713 5710 5707 5705 5702 5700 5697 5694 5690 5687 5685 5682 5680 5676 5673 5671
5759 5757 5754 5752 5750 5748 5745 5743 5741 5738 5735 5733 5730 5728 5725 5723 5720 5718 5715 5712 5710 5708 5705 5702 5699 5696 5693 5691 5688 5685 5682 5679 5676 5673 5670 5667 5664 5661
5750 5748 5746 5744 5742 5739 5737 5735 5732 5730 5727 5725 5722 5720 5717 5715 5713 5710 5708 5705 5702 5700 5697 5694 5691 5688 5686 5683 5679 5676 5674 5671 5667 5664 5660 5658 5655 5652
5742 5740 5737 5735 5733 5731 5728 5726 5723 5721 5719 5716 5714 5711 5709 5707 5704 5702 5700 5697 5694 5692 5689 5686 5683 5680 5677 5674 5671 5668 5665 5662 5659 5655 5652 5648 5645 5642